• en France
  • Liste des pays
  • À 7 jours
  • Température de l'eau
  • Carte satellitaire
  • Carte météo
  • Widgets météo
  • user-avatar
    Se connecter

    Météo par heure à Puntarenas

    Ce jour, 16 Décembre, Samedi

    Heure Température Précipitation Vent Pression Humidité
    00:00 +25°C° 0 mm 1 m/s 758 mmHg 80%
    01:00 +25°C° 0 mm 1 m/s 758 mmHg 81%
    02:00 +25°C° 0 mm 1 m/s 758 mmHg 81%
    03:00 +25°C° 0 mm 1 m/s 757 mmHg 82%
    04:00 +25°C° 0 mm 1 m/s 758 mmHg 82%
    05:00 +25°C° 0 mm 1 m/s 758 mmHg 82%
    06:00 +25°C° 0 mm 1 m/s 758 mmHg 83%
    07:00 +27°C° 0 mm 1 m/s 758 mmHg 77%
    08:00 +29°C° 0 mm 1 m/s 759 mmHg 71%
    09:00 +31°C° 0 mm 2 m/s 759 mmHg 64%
    10:00 +32°C° 0 mm 2 m/s 758 mmHg 61%
    11:00 +34°C° 0 mm 3 m/s 758 mmHg 57%
    12:00 +36°C° 0 mm 3 m/s 757 mmHg 54%
    13:00 +35°C° 0 mm 3 m/s 757 mmHg 56%
    14:00 +34°C° 0 mm 3 m/s 756 mmHg 58%
    15:00 +34°C° 0 mm 3 m/s 756 mmHg 59%
    16:00 +31°C° 0 mm 3 m/s 756 mmHg 67%
    17:00 +29°C° 0 mm 2 m/s 756 mmHg 75%
    18:00 +27°C° 0 mm 2 m/s 756 mmHg 83%
    19:00 +27°C° 0 mm 2 m/s 757 mmHg 83%
    20:00 +27°C° 0 mm 2 m/s 757 mmHg 82%
    21:00 +26°C° 0 mm 2 m/s 758 mmHg 82%
    22:00 +26°C° 0 mm 2 m/s 758 mmHg 82%
    23:00 +26°C° 0 mm 2 m/s 758 mmHg 81%

    Demain, 17 Décembre, Dimanche

    Heure Température Précipitation Vent Pression Humidité
    00:00 +26°C° 0 mm 2 m/s 758 mmHg 81%
    01:00 +26°C° 0 mm 2 m/s 758 mmHg 81%
    02:00 +26°C° 0 mm 2 m/s 757 mmHg 82%
    03:00 +26°C° 0 mm 2 m/s 757 mmHg 82%
    04:00 +26°C° 0 mm 2 m/s 757 mmHg 83%
    05:00 +25°C° 0 mm 2 m/s 757 mmHg 83%
    06:00 +25°C° 0 mm 2 m/s 757 mmHg 83%
    07:00 +27°C° 0 mm 2 m/s 758 mmHg 75%
    08:00 +29°C° 0 mm 2 m/s 758 mmHg 67%
    09:00 +32°C° 0 mm 2 m/s 759 mmHg 60%
    10:00 +34°C° 0 mm 3 m/s 758 mmHg 57%
    11:00 +35°C° 0 mm 3 m/s 758 mmHg 54%
    12:00 +36°C° 0 mm 3 m/s 757 mmHg 52%
    13:00 +35°C° 0 mm 3 m/s 757 mmHg 55%
    14:00 +34°C° 0 mm 3 m/s 756 mmHg 59%
    15:00 +34°C° 0 mm 3 m/s 755 mmHg 62%
    16:00 +31°C° 0 mm 3 m/s 756 mmHg 70%
    17:00 +29°C° 0 mm 2 m/s 756 mmHg 78%
    18:00 +27°C° 0 mm 2 m/s 756 mmHg 86%
    19:00 +27°C° 0 mm 2 m/s 757 mmHg 86%
    20:00 +27°C° 0 mm 2 m/s 758 mmHg 86%
    21:00 +26°C° 0 mm 1 m/s 758 mmHg 87%
    22:00 +26°C° 0 mm 1 m/s 758 mmHg 87%
    23:00 +26°C° 0 mm 1 m/s 758 mmHg 86%

    Après-demain, 18 Décembre, Lundi

    Heure Température Précipitation Vent Pression Humidité
    00:00 +26°C° 0 mm 1 m/s 758 mmHg 86%
    01:00 +26°C° 0 mm 1 m/s 757 mmHg 86%
    02:00 +26°C° 0 mm 1 m/s 757 mmHg 86%
    03:00 +26°C° 0 mm 1 m/s 756 mmHg 86%
    04:00 +26°C° 0 mm 1 m/s 757 mmHg 86%
    05:00 +26°C° 0 mm 1 m/s 757 mmHg 85%
    06:00 +26°C° 0 mm 1 m/s 757 mmHg 85%
    07:00 +28°C° 0 mm 2 m/s 758 mmHg 78%
    08:00 +29°C° 0 mm 2 m/s 759 mmHg 72%
    09:00 +31°C° 0 mm 2 m/s 759 mmHg 65%
    10:00 +33°C° 0 mm 3 m/s 759 mmHg 61%
    11:00 +34°C° 0 mm 3 m/s 758 mmHg 58%
    12:00 +36°C° 0 mm 3 m/s 758 mmHg 54%
    13:00 +35°C° 0 mm 3 m/s 757 mmHg 56%
    14:00 +34°C° 0 mm 3 m/s 756 mmHg 59%
    15:00 +34°C° 0 mm 3 m/s 756 mmHg 61%
    16:00 +31°C° 0 mm 3 m/s 756 mmHg 69%
    17:00 +29°C° 0 mm 2 m/s 756 mmHg 78%
    18:00 +27°C° 0 mm 2 m/s 757 mmHg 86%
    19:00 +27°C° 0 mm 2 m/s 758 mmHg 87%
    20:00 +26°C° 0 mm 1 m/s 758 mmHg 87%
    21:00 +26°C° 0 mm 1 m/s 759 mmHg 88%
    22:00 +26°C° 0 mm 1 m/s 759 mmHg 88%
    23:00 +26°C° 0 mm 1 m/s 759 mmHg 88%

    19 Décembre, Mardi

    Heure Température Précipitation Vent Pression Humidité
    00:00 +26°C° 0 mm 1 m/s 758 mmHg 87%
    01:00 +26°C° 0 mm 1 m/s 758 mmHg 87%
    02:00 +26°C° 0 mm 1 m/s 758 mmHg 87%
    03:00 +26°C° 0 mm 1 m/s 757 mmHg 86%
    04:00 +26°C° 0 mm 1 m/s 758 mmHg 86%
    05:00 +26°C° 0 mm 1 m/s 758 mmHg 87%
    06:00 +25°C° 0 mm 1 m/s 758 mmHg 87%
    07:00 +28°C° 0 mm 1 m/s 759 mmHg 78%
    08:00 +30°C° 0 mm 2 m/s 759 mmHg 70%
    09:00 +32°C° 0 mm 2 m/s 759 mmHg 61%
    10:00 +34°C° 0 mm 2 m/s 758 mmHg 58%
    11:00 +35°C° 0 mm 3 m/s 758 mmHg 55%
    12:00 +36°C° 0 mm 3 m/s 757 mmHg 52%
    13:00 +35°C° 0 mm 3 m/s 757 mmHg 55%
    14:00 +34°C° 0 mm 3 m/s 756 mmHg 58%
    15:00 +34°C° 0 mm 4 m/s 755 mmHg 62%
    16:00 +31°C° 0,1 mm 3 m/s 756 mmHg 70%
    17:00 +29°C° 0,1 mm 2 m/s 756 mmHg 78%
    18:00 +27°C° 0,1 mm 2 m/s 757 mmHg 86%
    19:00 +27°C° 0 mm 2 m/s 757 mmHg 87%
    20:00 +26°C° 0 mm 2 m/s 758 mmHg 89%
    21:00 +26°C° 0 mm 1 m/s 759 mmHg 90%
    22:00 +26°C° 0 mm 1 m/s 759 mmHg 89%
    23:00 +26°C° 0 mm 1 m/s 758 mmHg 88%

    20 Décembre, Mercredi

    Heure Température Précipitation Vent Pression Humidité
    00:00 +25°C° 0 mm 1 m/s 758 mmHg 86%
    01:00 +25°C° 0 mm 1 m/s 758 mmHg 86%
    02:00 +25°C° 0 mm 1 m/s 757 mmHg 86%
    03:00 +25°C° 0 mm 1 m/s 757 mmHg 86%
    04:00 +25°C° 0 mm 1 m/s 758 mmHg 86%
    05:00 +25°C° 0 mm 1 m/s 758 mmHg 85%
    06:00 +26°C° 0 mm 1 m/s 759 mmHg 85%
    07:00 +27°C° 0 mm 1 m/s 759 mmHg 79%
    08:00 +29°C° 0 mm 2 m/s 759 mmHg 74%
    09:00 +31°C° 0 mm 2 m/s 759 mmHg 68%
    10:00 +31°C° 0 mm 2 m/s 759 mmHg 65%
    11:00 +33°C° 0 mm 3 m/s 758 mmHg 62%
    12:00 +34°C° 0 mm 3 m/s 757 mmHg 59%
    13:00 +34°C° 0 mm 3 m/s 757 mmHg 62%
    14:00 +33°C° 0 mm 3 m/s 756 mmHg 64%
    15:00 +33°C° 0 mm 3 m/s 755 mmHg 66%
    16:00 +30°C° 0 mm 2 m/s 756 mmHg 72%
    17:00 +29°C° 0 mm 2 m/s 756 mmHg 78%
    18:00 +27°C° 0 mm 2 m/s 756 mmHg 85%
    19:00 +27°C° 0 mm 2 m/s 757 mmHg 85%
    20:00 +27°C° 0 mm 2 m/s 757 mmHg 86%
    21:00 +27°C° 0 mm 1 m/s 758 mmHg 86%
    22:00 +26°C° 0 mm 1 m/s 757 mmHg 86%
    23:00 +26°C° 0 mm 1 m/s 757 mmHg 86%

    21 Décembre, Jeudi

    Heure Température Précipitation Vent Pression Humidité
    00:00 +26°C° 0 mm 1 m/s 757 mmHg 86%
    01:00 +26°C° 0 mm 1 m/s 757 mmHg 86%
    02:00 +26°C° 0 mm 1 m/s 757 mmHg 86%
    03:00 +26°C° 0 mm 1 m/s 756 mmHg 86%
    04:00 +26°C° 0 mm 1 m/s 757 mmHg 85%
    05:00 +26°C° 0 mm 1 m/s 757 mmHg 85%
    06:00 +26°C° 0 mm 1 m/s 758 mmHg 85%
    07:00 +28°C° 0 mm 1 m/s 758 mmHg 77%
    08:00 +30°C° 0 mm 1 m/s 758 mmHg 69%
    09:00 +32°C° 0 mm 1 m/s 759 mmHg 62%
    10:00 +34°C° 0 mm 2 m/s 758 mmHg 59%
    11:00 +35°C° 0 mm 2 m/s 757 mmHg 56%
    12:00 +36°C° 0 mm 3 m/s 757 mmHg 53%
    13:00 +35°C° 0 mm 3 m/s 756 mmHg 56%
    14:00 +34°C° 0 mm 3 m/s 756 mmHg 59%
    15:00 +34°C° 0 mm 3 m/s 755 mmHg 61%
    16:00 +31°C° 0 mm 3 m/s 756 mmHg 69%
    17:00 +29°C° 0 mm 2 m/s 756 mmHg 77%
    18:00 +27°C° 0 mm 2 m/s 756 mmHg 85%
    19:00 +27°C° 0 mm 2 m/s 757 mmHg 86%
    20:00 +27°C° 0 mm 2 m/s 757 mmHg 87%
    21:00 +26°C° 0 mm 2 m/s 758 mmHg 87%
    22:00 +26°C° 0 mm 2 m/s 758 mmHg 86%
    23:00 +26°C° 0 mm 1 m/s 757 mmHg 86%
    Voir plus